Overview Statistics Trail Chart Weather Telemetry Raw packets
 

This is the latest recevied weather packets stored in our database for station/object KB0BS-13. If no packets are shown the sender has not sent any weather packets the latest 10 day(s).

<< 43 44 45 46 47 48 49 >>
Time Temp. Humidity Pressure Rain* Wind** Luminosity Snow
1777403433 8.33° C 96% 1008.3 hPa 0 mm - 98 W/m² -
1777403132 8.33° C 95% 1008.4 hPa 0 mm - 86 W/m² -
1777402828 8.33° C 94% 1008.2 hPa 0 mm - 101 W/m² -
1777402526 8.33° C 95% 1008.4 hPa 0 mm - 136 W/m² -
1777402222 8.89° C 96% 1008.4 hPa 0 mm - 163 W/m² -
1777401917 8.33° C 95% 1008.2 hPa 0 mm - 187 W/m² -
1777401616 8.89° C 96% 1008.3 hPa 0 mm - 167 W/m² -
1777401313 8.89° C 96% 1008 hPa 0 mm - 171 W/m² -
1777401009 8.89° C 96% 1007.7 hPa 0 mm - 184 W/m² -
1777400705 8.33° C 97% 1007.6 hPa 0 mm - 248 W/m² -
1777400403 8.33° C 98% 1007.6 hPa 0 mm - 262 W/m² -
1777400103 8.33° C 99% 1007.6 hPa 0 mm - 169 W/m² -
1777399800 7.78° C 99% 1007.2 hPa 0 mm - 172 W/m² -
1777399497 7.78° C 99% 1007.3 hPa 0 mm - 192 W/m² -
1777399195 7.78° C 99% 1007.2 hPa 0 mm - 140 W/m² -
1777398891 8.33° C 99% 1007.1 hPa 0 mm - 143 W/m² -
1777398588 7.78° C 99% 1007.2 hPa 0 mm - 137 W/m² -
1777398284 8.33° C 99% 1007.1 hPa 0 mm - 126 W/m² -
1777397983 8.33° C 99% 1006.9 hPa 0 mm - 138 W/m² -
1777397678 8.33° C 99% 1006.8 hPa 0 mm - 126 W/m² -
1777397374 8.33° C 99% 1006.6 hPa 0 mm - 160 W/m² -
1777397071 7.78° C 99% 1006.7 hPa 0 mm - 157 W/m² -
1777396767 8.33° C 99% 1006.3 hPa 0 mm - 114 W/m² -
1777396465 8.33° C 99% 1006 hPa 0 mm - 144 W/m² -
1777396161 8.33° C 99% 1006 hPa 0 mm - 144 W/m² -

* Rain latest hour (hover to see other rain measurements)
** Current wind speed in m/s (hover to see current wind gust speed)